FENGYUN 1C DEB, 30081

Orbit data source: Space-Track

FENGYUN 1C DEB, 30081 is space debris in SSO originally from a launch on Mon, 10 May 1999 UTC launched from the Taiyaun Space Center, China (TSC). Fengyun 1C debris stems from the Chinese weather satellite Fengyun-1C, which was intentionally destroyed by a Chinese anti-satellite missile in 2007. This event dramatically increased the amount of space debris, with thousands of trackable fragments posing hazards to satellites and human spaceflight. The Fengyun 1C debris cloud has become a focal point in discussions about space sustainability and the need for international regulations to prevent the creation of new debris.

Loading next visibility...
Identifier
30081, 1999-025QJ
Orbit
SSO
Country
Flag of CNCN / PRC
Related business
Manufacturer
Unknown
Mission
Spacecraft
Bus & Motor
Unknown
Mass
Unknown
Launch date (UTC)
1999-05-10 (27 years ago)
Launch vehicle
Unknown
Launch site
Taiyaun Space Center, China (TSC)
Object type
Payload
Rocket body
Debris
Shape & HBR
Unknown shape, 0.1 m
Radar Cross Section
Small (<0.1 m²)

Expand to show TLE details & history
Last TLE update: 18 hours ago

TLE from 18 hours ago
0 FENGYUN 1C DEB
1 30081U 99025QJ  26145.44742080  .00000638  00000-0  46536-3 0  9998
2 30081  98.9300 142.3644 0074528 245.7866 278.7028 13.98442702986424
Epoch: 2026-05-25T10:44Z
TLE epoch observation values (Epoch: 2026-05-25T10:44:17.157Z)
Latitude
16.13459°
Longitude
-79.15048°
Altitude
893.6 km
Speed
7.411 km/s
True Right ascension
21h 39m 49s
True Declination
16° 02' 41"
Sunlit
Object was in daylight at epoch
Visualization orbit readout
Latitude
Unknown
Longitude
Unknown
Altitude
Unknown
Speed
Unknown
Apparent Right ascension
Unknown
Apparent Declination
Unknown
Sunlit
N/A
Visualization observer readout
Local Sidereal Time
13:59:59
Azimuth
Unknown
Elevation
Unknown
Doppler factor
Unknown
Orbital elements
Apogee altitude
950.606 km
Perigee altitude
842.175 km
Semi-major axis
7,274.528 km
Eccentricity
0.00745
Inclination
98.93°
RAAN
142.3644°
Arg. of periapsis
245.7866°
True anomaly
277.85744°
Mean anomaly
278.7028°
Eccentric anomaly
278.28024°
Mean motion
3.49813 °/min
Orbital period
102.91 mins
BSTAR
0.00046536
Loading maneuver chart data...
Computing Atmospheric mass density...

Documentation

Showing up to 5 results
|